SCP
-0 0 0 0 0 0 -0 -0 0 0 -0 0 -0 -0 -0 -0 0 0 -0 -0 -0 -0 -0 -0 -0 -0 0 0 0 0 0 -0 -0 -0 0 0 -0 -0 -0 -0 -0 0 0 -0 -0 -0 -0 -0 0
0 0 0 0 0 0 0 0 0 0 0 -0 0 0 -0 -0 0 -0 0 0 -0 -0 -0 -0 -0 0 0 0 0 0 0 0 0 0 -0 -0 0 -0 -0 -0 0 -0 0 -0 -0 -0 0 -0 0
-0 0 0 0 0 -0 0 0 0 0 -0 0 0 0 0 -0 0 -0 0 -0 -0 0 -0 -0 -0 0 0 0 0 0 0 0 0 0 0 0 -0 0 0 -0 0 -0 -0 0 -0 -0 0 0 0
-0 -0 0 0 0 0 0 0 0 0 0 0 0 0 -0 0 -0 0 -0 -0 -0 -0 -0 -0 0 -0 -0 0 0 0 0 0 0 0 0 0 0 0 0 0 -0 -0 -0 0 0 -0 -0 0 0
0 0 0 0 -0 0 0 0 0 0 0 0 0 0 -0 0 0 -0 -0 -0 -0 0 -0 -0 0 -0 -0 0 0 0 0 0 0 0 0 0 0 0 -0 -0 0 0 0 -0 -0 -0 0 0 0
-0 0 0 0 0 0 0 0 0 0 0 0 0 0 0 -0 -0 -0 -0 -0 0 0 -0 -0 0 -0 0 0 0 0 0 0 0 0 0 0 0 0 0 0 0 0 0 0 0 0 0 0 0
-0 0 0 0 -0 -0 0 0 0 0 -0 0 0 0 0 0 0 0 -0 -0 -0 -0 -0 -0 -0 -0 0 0 0 0 0 0 0 0 0 -0 -0 0 0 0 0 0 0 0 -0 0 0 0 0
0 -0 -0 -0 -0 0 -0 0 0 0 0 -0 0 0 0 -0 0 -0 -0 -0 -0 -0 -0 -0 -0 -0 -0 -0 0 0 0 0 0 0 0 -0 -0 -0 -0 -0 0 0 -0 -0 0 -0 -0 -0 0
-0 -0 -0 -0 -0 -0 -0 0 0 0 0 0 0 0 -0 -0 0 -0 -0 0 0 -0 -0 -0 -0 -0 -0 -0 0 0 0 0 0 0 0 -0 -0 -0 -0 0 -0 0 0 0 0 0 0 -0 0
-0 0 0 0 -0 0 0 -0 0 0 0 0 0 -0 -0 -0 -0 -0 -0 -0 0 0 -0 -0 -0 -0 -0 0 -0 -0 -0 -0 -0 -0 -0 -0 -0 -0 -0 -0 -0 -0 0 0 -0 0 0 0 0
-0 0 -0 -0 -0 -0 0 0 -0 -0 0 0 -0 -0 -0 -0 -0 -0 -0 0 0 0 -0 -0 -0 -0 -0 -0 -0 -0 -0 -0 -0 -0 0 0 -0 -0 -0 -0 -0 -0 -0 0 0 0 0 0 0
0 0 0 0 0 -0 0 0 -0 0 0 -0 -0 -0 -0 0 -0 0 0 -0 -0 0 -0 -0 -0 -0 -0 -0 -0 -0 -0 -0 -0 0 0 0 -0 0 -0 0 -0 0 0 -0 0 0 0 0 0
0 0 0 0 -0 -0 -0 -0 -0 -0 0 0 -0 -0 -0 -0 -0 -0 -0 -0 -0 -0 -0 -0 -0 -0 -0 -0 -0 -0 -0 -0 -0 0 0 -0 0 0 -0 -0 0 0 0 0 0 0 0 -0 0
0 0 0 0 0 0 0 0 0 0 0 0 -0 -0 -0 -0 -0 -0 -0 -0 -0 -0 -0 -0 -0 -0 -0 -0 -0 -0 -0 -0 -0 -0 0 0 0 0 0 0 0 0 -0 0 0 0 0 0 0
0 0 0 0 0 0 -0 0 0 0 0 0 -0 -0 -0 0 -0 -0 -0 -0 0 -0 -0 -0 -0 -0 -0 -0 -0 -0 -0 -0 -0 0 0 0 0 0 0 0 0 -0 0 -0 0 0 0 0 0
0 0 0 0 0 0 0 0 0 0 0 -0 -0 -0 -0 0 -0 0 0 -0 -0 -0 -0 -0 -0 -0 -0 -0 -0 -0 -0 -0 -0 0 0 0 0 0 0 0 0 -0 -0 0 0 0 0 0 0
0 0 0 0 0 0 0 0 0 -0 0 0 -0 -0 -0 0 0 0 -0 0 0 -0 -0 -0 -0 -0 -0 -0 -0 -0 -0 -0 0 0 0 0 0 0 0 0 0 -0 0 0 0 0 0 0 0
0 0 0 0 0 0 0 0 0 0 -0 0 -0 -0 -0 0 0 0 -0 0 0 0 -0 -0 -0 -0 -0 -0 -0 -0 -0 -0 -0 0 0 0 0 0 0 0 0 0 0 0 0 0 0 0 0
0 0 0 0 0 0 0 0 0 0 0 0 0 0 -0 -0 -0 0 -0 0 0 0 -0 -0 -0 -0 -0 -0 -0 -0 -0 -0 -0 0 0 0 0 0 0 0 0 -0 -0 -0 0 0 0 0 0
0 0 0 0 0 0 0 0 0 0 0 0 -0 0 0 0 -0 -0 -0 0 0 0 0 0 0 -0 -0 -0 -0 0 0 -0 -0 -0 0 0 0 0 0 0 0 0 0 -0 -0 -0 0 0 0
0 0 0 0 0 0 0 0 0 0 0 0 0 0 0 0 0 0 0 0 0 0 0 0 0 0 0 -0 0 0 0 0 0 -0 -0 -0 -0 0 0 0 0 0 -0 -0 -0 -0 0 0 0
0 -0 0 0 0 0 0 0 0 0 0 0 0 0 0 0 0 0 0 0 0 0 0 0 0 0 0 0 0 0 0 0 0 -0 -0 -0 -0 -0 0 0 0 0 -0 -0 -0 -0 0 -0 0
0 0 0 0 0 0 0 0 0 0 0 0 0 0 0 0 0 0 0 0 0 0 0 0 0 0 0 0 0 0 0 0 0 -0 -0 -0 -0 -0 -0 -0 0 0 0 -0 0 0 0 0 0
0 0 0 0 0 0 0 0 0 0 0 0 0 0 0 0 0 0 0 0 0 0 0 0 0 0 0 0 0 0 0 0 0 0 0 -0 -0 -0 -0 -0 -0 0 0 0 0 0 -0 -0 -0
0 0 0 0 0 0 0 0 0 0 0 0 0 0 0 0 0 0 0 0 0 -0 -0 0 0 0 0 0 0 0 0 0 0 -0 -0 -0 -0 -0 -0 -0 -0 0 0 0 0 0 -0 -0 -0
0 0 0 0 0 0 0 0 0 0 0 0 0 0 0 0 0 0 0 0 0 0 0 0 0 0 0 0 0 0 0 0 0 0 -0 -0 -0 0 -0 0 0 0 0 0 0 -0 -0 -0 -0
0 0 0 0 0 0 0 0 0 0 0 0 0 0 0 0 0 0 0 0 0 0 -0 -0 -0 0 0 0 0 0 0 0 0 0 -0 -0 -0 -0 -0 0 0 0 0 0 0 0 0 0 -0
0 0 0 0 0 0 0 0 0 0 0 0 0 0 0 0 0 0 0 0 0 0 0 0 -0 -0 0 0 0 0 0 0 0 0 0 0 0 -0 -0 -0 0 0 0 -0 -0 0 -0 -0 -0
0 0 0 0 0 0 0 0 0 0 0 0 0 0 0 0 0 0 0 0 0 0 0 0 0 -0 0 0 0 0 0 0 0 0 0 0 0 0 -0 -0 0 0 0 0 0 0 -0 -0 -0
0 0 0 0 0 0 0 0 0 0 0 0 0 0 0 0 0 0 0 0 0 0 0 0 0 0 0 0 0 0 0 0 0 0 0 0 0 0 0 -0 -0 -0 0 0 0 0 0 0 -0
Wind_Speed_500mb
14 14 12 3 4 4 3 7 3 6 8 17 45 15 18 20 8 6 45 74 66 62 56 48 41 36 30 21 19 15 14 13 13 17 14 14 15 14 16 15 16 17 19 19 21 21 21 23 27
14 17 9 4 1 5 5 7 11 14 6 53 22 33 8 6 6 27 73 70 64 60 53 46 40 35 31 21 16 15 16 14 15 15 16 15 15 14 17 14 18 20 20 22 22 21 22 25 30
16 12 1 1 5 4 2 10 17 13 51 32 11 18 8 5 13 73 71 73 64 57 50 42 37 33 28 22 17 16 14 15 16 14 17 16 17 19 20 19 20 21 21 23 23 23 23 24 24
13 4 5 2 5 3 2 8 24 9 20 13 24 16 11 8 61 54 73 71 62 56 46 40 35 31 27 22 18 16 14 17 15 20 17 13 18 18 18 20 21 21 22 24 25 27 29 28 25
13 5 3 4 5 4 2 3 16 15 3 13 2 8 16 21 37 66 74 67 59 54 44 37 32 30 26 23 19 17 18 19 16 17 17 17 15 17 19 21 20 17 24 26 31 32 28 25 25
2 5 2 2 2 5 5 11 14 11 6 19 23 14 11 19 49 76 69 61 55 49 41 34 32 28 23 20 19 20 19 19 17 17 17 15 17 18 19 23 23 22 23 28 32 30 25 21 22
3 2 3 7 7 4 5 10 5 3 15 13 29 7 24 30 61 73 64 58 49 42 37 35 30 25 22 22 21 21 21 21 17 16 13 14 18 20 21 23 23 21 23 30 31 26 24 23 22
4 3 5 7 8 5 10 10 3 16 20 30 15 12 18 51 73 69 60 52 45 40 36 34 30 28 25 24 24 24 24 20 17 14 14 17 20 20 22 23 24 20 22 28 29 24 22 20 21
3 4 3 2 10 12 23 14 4 13 6 6 7 27 46 72 69 67 59 49 45 41 35 33 31 27 26 25 25 27 23 22 19 18 18 22 24 21 22 20 22 20 20 25 26 22 20 21 22
4 2 7 4 7 5 17 15 13 6 10 21 36 43 66 73 69 67 62 56 50 45 38 34 31 29 29 27 27 28 27 24 21 21 22 25 25 24 22 22 20 19 18 22 22 17 16 18 17
11 4 7 5 12 19 11 18 16 17 3 6 48 69 75 68 67 65 60 55 52 44 40 35 32 31 31 29 29 29 28 25 24 23 21 21 23 23 22 20 19 18 19 22 21 14 16 14 12
4 22 20 14 19 15 13 21 6 14 12 15 53 74 72 68 69 66 61 56 51 46 40 37 34 32 31 29 30 31 32 23 20 20 19 18 20 20 22 20 17 17 20 20 19 11 8 9 6
8 13 19 28 27 16 21 17 4 17 16 31 65 65 68 67 65 58 53 50 48 45 42 38 38 35 33 34 33 33 30 24 22 21 20 21 19 19 20 20 18 18 17 16 16 10 8 8 13
5 13 31 23 31 23 20 11 6 15 21 44 62 66 69 67 65 58 51 48 49 46 43 42 41 38 35 37 39 28 25 25 23 19 18 14 9 9 13 13 16 9 16 16 16 15 8 14 13
10 5 11 13 20 11 33 4 12 14 35 45 65 62 71 66 62 56 46 49 46 46 47 45 44 42 39 37 33 27 25 21 18 15 15 13 11 10 9 9 15 13 19 24 16 17 19 11 13
6 7 4 2 8 22 4 8 10 28 45 50 64 60 68 72 65 59 50 48 47 50 51 49 49 46 40 36 32 30 24 18 17 12 13 12 12 9 7 8 11 15 21 22 23 20 21 10 16
11 6 3 7 16 12 4 10 13 30 33 50 58 65 63 67 64 64 59 51 48 52 54 53 54 49 42 35 29 27 21 18 16 13 9 9 10 6 5 10 13 16 20 27 22 19 16 18 15
6 9 4 8 9 9 11 20 9 39 34 44 55 61 59 70 69 64 66 58 54 58 60 52 52 48 41 31 30 29 24 21 21 16 11 9 6 10 6 10 13 19 26 25 25 23 18 11 9
5 9 6 4 8 6 14 19 8 29 26 36 47 52 65 68 65 65 68 67 61 64 64 60 52 52 46 39 34 34 30 21 21 16 10 13 11 9 10 10 12 17 22 23 23 23 16 12 6
6 2 2 6 5 8 5 7 8 16 19 39 51 50 56 58 71 67 72 78 73 72 67 64 55 55 51 40 36 33 27 23 20 17 13 11 11 12 13 11 11 9 16 20 22 20 15 13 8
5 8 5 6 8 7 4 8 4 2 3 21 37 51 49 62 67 74 79 81 83 82 75 67 62 58 53 46 44 40 33 27 29 23 21 14 12 9 11 12 12 12 14 18 20 12 9 10 9
2 15 10 5 5 3 3 5 5 7 8 9 23 49 55 62 55 74 84 83 90 88 78 70 67 64 57 54 52 46 43 39 32 28 21 16 16 15 11 13 15 13 18 19 16 12 10 18 14
14 9 12 8 7 6 6 8 9 3 14 27 37 48 63 66 59 65 88 86 83 87 84 79 73 71 61 60 60 55 50 41 34 31 28 23 19 18 16 14 17 16 16 21 22 19 15 17 16
7 11 15 11 7 4 9 10 7 9 13 23 32 53 62 71 71 59 72 87 88 85 87 83 82 76 69 61 61 64 57 49 45 37 33 28 22 21 22 20 18 17 18 17 26 25 22 21 20
11 13 4 5 4 10 7 8 10 13 18 22 30 50 69 78 75 69 68 82 89 94 92 89 87 87 72 68 62 60 64 57 51 43 39 29 30 24 25 23 18 17 20 16 22 28 25 21 20
6 14 10 10 10 6 7 7 2 10 32 34 19 27 48 68 78 69 78 78 86 92 92 96 94 90 83 72 67 58 60 63 58 51 45 39 33 27 20 24 22 16 16 22 17 26 25 23 24
7 9 6 14 7 8 4 5 6 18 32 44 47 8 18 41 67 84 72 82 82 92 93 97 95 96 92 77 70 65 61 60 61 58 49 48 40 34 29 27 25 24 22 20 25 26 29 30 29
14 2 6 7 8 6 6 6 7 25 31 31 37 40 27 16 44 58 73 87 90 93 95 95 92 92 97 87 76 70 64 61 59 60 58 55 49 43 40 39 34 26 28 24 24 27 27 34 33
11 9 11 10 6 10 8 5 10 12 14 22 40 52 50 40 29 55 66 79 97 98 95 97 101 96 100 98 87 77 70 65 62 61 62 57 55 48 42 40 41 36 28 28 25 22 26 27 27
10 7 6 9 6 3 6 5 9 16 28 33 45 54 51 45 38 28 64 74 80 94 98 99 98 98 98 100 97 85 76 68 65 64 63 62 62 55 46 40 39 42 39 34 33 30 27 28 28
Wind_Direction_500mb
143 144 142 128 332 272 340 18 320 314 118 155 147 137 169 137 169 188 147 159 162 159 159 159 162 163 159 143 133 140 147 131 121 126 127 122 126 132 138 147 154 152 139 132 127 121 111 109 109
142 143 141 81 345 329 8 8 313 277 148 137 123 125 114 107 97 142 148 157 163 159 160 163 166 167 166 159 146 146 145 137 134 132 128 126 118 121 127 123 143 145 148 143 136 128 123 120 117
136 136 129 7 125 240 321 25 354 19 131 137 101 103 76 99 147 144 149 156 161 158 160 163 164 167 172 166 154 149 146 140 132 130 131 123 130 119 123 126 132 138 143 149 143 133 129 127 126
149 152 49 89 41 118 20 338 354 129 100 84 107 74 85 171 140 147 150 157 160 158 161 162 163 170 173 167 163 153 152 141 132 134 124 126 125 116 120 127 122 132 136 142 142 137 134 124 124
152 96 94 175 184 241 158 289 355 322 20 109 88 85 98 137 152 151 151 158 160 158 161 161 162 165 164 164 166 162 153 140 132 124 115 117 120 115 122 116 116 138 138 139 136 135 135 130 119
98 159 235 93 39 341 356 356 342 308 120 117 97 105 97 160 158 153 154 157 159 159 161 161 161 165 164 165 158 154 148 138 137 135 128 127 123 119 115 121 122 118 125 133 137 136 131 124 122
237 142 286 124 134 57 343 357 287 8 144 107 132 90 133 153 161 155 155 157 160 162 163 159 161 164 158 157 159 154 148 144 138 134 133 139 129 122 121 126 121 120 125 134 135 132 123 112 115
261 151 298 70 100 217 201 190 220 60 61 139 123 144 158 163 162 156 158 160 161 163 164 164 162 162 162 161 157 154 149 141 140 136 144 145 133 126 118 123 119 122 129 140 138 130 111 109 117
255 359 349 172 147 167 184 180 112 75 107 196 154 153 162 160 161 160 161 164 164 165 168 168 166 167 161 162 159 157 152 141 138 132 141 149 142 134 129 126 120 122 131 146 145 131 115 111 112
142 210 212 263 153 187 140 165 143 101 0 73 97 145 158 160 163 165 166 168 169 168 169 170 169 167 163 161 162 161 152 143 136 124 125 141 142 136 135 128 124 124 129 137 150 133 127 125 109
180 235 214 164 157 150 148 149 153 142 215 192 144 148 161 164 168 171 171 172 171 170 171 171 169 168 167 163 167 156 147 139 133 121 122 136 143 143 139 130 127 130 120 132 144 138 130 123 98
194 230 247 167 163 153 168 137 134 175 119 136 160 161 166 169 171 171 173 176 173 173 171 171 169 171 172 164 161 155 151 148 150 127 123 127 127 133 134 143 138 134 126 134 145 150 157 145 142
211 274 261 245 197 172 148 165 185 208 131 146 159 164 168 169 171 175 177 179 177 175 172 172 169 170 171 162 160 156 161 149 144 145 133 126 117 114 120 137 141 136 144 153 160 167 159 175 165
213 230 264 274 207 162 139 153 168 193 164 148 160 171 173 174 177 178 182 183 184 177 173 171 166 170 171 163 159 152 154 161 161 155 148 148 157 145 139 156 169 166 175 175 185 186 169 98 120
270 292 332 17 125 147 126 71 232 199 173 156 168 176 181 183 186 186 181 182 182 180 175 172 166 168 169 167 168 169 160 161 163 175 177 154 154 157 156 150 172 179 174 180 168 173 184 112 128
44 49 67 277 123 157 157 244 199 185 174 160 167 177 186 192 195 191 189 190 189 180 178 173 172 169 167 165 165 167 176 163 172 179 178 182 173 167 155 164 173 178 182 183 169 169 177 178 143
11 144 117 98 171 133 192 253 153 187 177 166 173 181 187 195 199 203 198 193 190 180 178 176 174 172 170 170 175 184 194 193 194 196 193 187 167 172 163 146 161 170 167 167 176 163 157 154 144
185 115 25 115 195 166 186 258 131 183 197 175 179 184 183 198 206 205 205 199 191 178 177 177 181 183 182 184 189 201 207 213 213 211 223 229 206 179 179 153 141 156 164 169 173 180 169 160 159
134 115 118 254 235 200 232 247 168 170 189 184 191 190 192 199 204 207 207 204 197 189 186 188 189 189 189 188 190 198 203 205 208 205 218 218 221 209 191 176 166 156 172 174 172 174 176 175 172
142 95 182 280 174 185 320 314 124 152 197 198 194 196 196 200 207 214 215 210 206 199 197 195 198 198 197 194 195 203 201 200 198 191 194 188 201 212 193 187 185 198 185 178 176 171 172 179 175
153 161 202 185 341 35 109 354 107 59 89 190 208 206 202 199 209 215 217 215 212 208 204 204 203 206 206 200 200 205 203 206 202 201 206 199 206 221 193 189 200 200 180 178 175 190 188 194 215
212 203 188 184 79 187 75 276 321 195 214 242 206 205 209 205 208 213 214 216 214 214 211 211 210 211 213 210 210 212 210 207 209 210 211 211 215 211 212 219 203 210 198 194 192 190 216 225 236
213 137 173 173 137 65 330 80 265 174 229 230 218 212 211 213 212 209 211 216 219 217 215 216 215 214 216 215 218 218 213 215 217 214 214 213 218 221 221 209 210 216 221 211 206 207 209 210 229
108 85 38 44 90 66 230 127 281 191 233 245 220 217 216 213 218 215 215 218 218 222 219 218 217 216 217 217 224 223 219 216 216 218 214 212 220 228 221 218 212 215 215 218 211 209 214 226 238
96 83 23 32 49 207 345 91 231 296 281 235 222 216 216 217 219 224 217 217 219 222 221 220 219 217 218 219 222 222 225 222 222 221 219 217 222 224 214 215 216 220 222 225 217 215 217 227 229
123 151 152 163 168 208 16 194 176 310 351 21 240 227 210 217 226 230 219 223 220 221 223 223 221 222 219 221 223 226 225 226 225 222 221 221 223 224 223 224 224 224 233 228 227 216 224 236 239
157 67 171 105 13 85 241 297 329 360 14 12 27 40 233 232 234 234 232 222 228 226 223 225 226 224 224 224 224 226 227 227 225 223 225 223 224 224 228 235 237 233 236 233 234 230 236 239 244
92 108 75 15 119 142 310 63 309 348 348 347 358 357 346 283 244 241 230 223 224 231 232 229 231 231 230 226 228 227 228 228 227 225 225 223 222 225 233 242 244 242 236 236 234 237 237 239 242
3 19 37 108 98 148 155 279 17 323 325 338 340 345 345 337 286 239 237 232 226 228 228 232 231 232 232 231 228 229 228 230 227 225 225 224 222 221 230 240 245 244 238 237 240 244 245 248 247
70 73 86 115 218 33 113 223 57 352 350 359 351 349 355 358 346 300 234 230 222 225 227 228 231 234 233 232 231 231 231 230 228 227 226 227 223 223 229 233 237 241 238 240 247 252 258 259 256
Wind_Speed_850mb
14 14 12 3 4 4 3 7 3 6 8 17 45 15 18 20 8 6 45 74 66 62 56 48 41 36 30 21 19 15 14 13 13 17 14 14 15 14 16 15 16 17 19 19 21 21 21 23 27
14 17 9 4 1 5 5 7 11 14 6 53 22 33 8 6 6 27 73 70 64 60 53 46 40 35 31 21 16 15 16 14 15 15 16 15 15 14 17 14 18 20 20 22 22 21 22 25 30
16 12 1 1 5 4 2 10 17 13 51 32 11 18 8 5 13 73 71 73 64 57 50 42 37 33 28 22 17 16 14 15 16 14 17 16 17 19 20 19 20 21 21 23 23 23 23 24 24
13 4 5 2 5 3 2 8 24 9 20 13 24 16 11 8 61 54 73 71 62 56 46 40 35 31 27 22 18 16 14 17 15 20 17 13 18 18 18 20 21 21 22 24 25 27 29 28 25
13 5 3 4 5 4 2 3 16 15 3 13 2 8 16 21 37 66 74 67 59 54 44 37 32 30 26 23 19 17 18 19 16 17 17 17 15 17 19 21 20 17 24 26 31 32 28 25 25
2 5 2 2 2 5 5 11 14 11 6 19 23 14 11 19 49 76 69 61 55 49 41 34 32 28 23 20 19 20 19 19 17 17 17 15 17 18 19 23 23 22 23 28 32 30 25 21 22
3 2 3 7 7 4 5 10 5 3 15 13 29 7 24 30 61 73 64 58 49 42 37 35 30 25 22 22 21 21 21 21 17 16 13 14 18 20 21 23 23 21 23 30 31 26 24 23 22
4 3 5 7 8 5 10 10 3 16 20 30 15 12 18 51 73 69 60 52 45 40 36 34 30 28 25 24 24 24 24 20 17 14 14 17 20 20 22 23 24 20 22 28 29 24 22 20 21
3 4 3 2 10 12 23 14 4 13 6 6 7 27 46 72 69 67 59 49 45 41 35 33 31 27 26 25 25 27 23 22 19 18 18 22 24 21 22 20 22 20 20 25 26 22 20 21 22
4 2 7 4 7 5 17 15 13 6 10 21 36 43 66 73 69 67 62 56 50 45 38 34 31 29 29 27 27 28 27 24 21 21 22 25 25 24 22 22 20 19 18 22 22 17 16 18 17
11 4 7 5 12 19 11 18 16 17 3 6 48 69 75 68 67 65 60 55 52 44 40 35 32 31 31 29 29 29 28 25 24 23 21 21 23 23 22 20 19 18 19 22 21 14 16 14 12
4 22 20 14 19 15 13 21 6 14 12 15 53 74 72 68 69 66 61 56 51 46 40 37 34 32 31 29 30 31 32 23 20 20 19 18 20 20 22 20 17 17 20 20 19 11 8 9 6
8 13 19 28 27 16 21 17 4 17 16 31 65 65 68 67 65 58 53 50 48 45 42 38 38 35 33 34 33 33 30 24 22 21 20 21 19 19 20 20 18 18 17 16 16 10 8 8 13
5 13 31 23 31 23 20 11 6 15 21 44 62 66 69 67 65 58 51 48 49 46 43 42 41 38 35 37 39 28 25 25 23 19 18 14 9 9 13 13 16 9 16 16 16 15 8 14 13
10 5 11 13 20 11 33 4 12 14 35 45 65 62 71 66 62 56 46 49 46 46 47 45 44 42 39 37 33 27 25 21 18 15 15 13 11 10 9 9 15 13 19 24 16 17 19 11 13
6 7 4 2 8 22 4 8 10 28 45 50 64 60 68 72 65 59 50 48 47 50 51 49 49 46 40 36 32 30 24 18 17 12 13 12 12 9 7 8 11 15 21 22 23 20 21 10 16
11 6 3 7 16 12 4 10 13 30 33 50 58 65 63 67 64 64 59 51 48 52 54 53 54 49 42 35 29 27 21 18 16 13 9 9 10 6 5 10 13 16 20 27 22 19 16 18 15
6 9 4 8 9 9 11 20 9 39 34 44 55 61 59 70 69 64 66 58 54 58 60 52 52 48 41 31 30 29 24 21 21 16 11 9 6 10 6 10 13 19 26 25 25 23 18 11 9
5 9 6 4 8 6 14 19 8 29 26 36 47 52 65 68 65 65 68 67 61 64 64 60 52 52 46 39 34 34 30 21 21 16 10 13 11 9 10 10 12 17 22 23 23 23 16 12 6
6 2 2 6 5 8 5 7 8 16 19 39 51 50 56 58 71 67 72 78 73 72 67 64 55 55 51 40 36 33 27 23 20 17 13 11 11 12 13 11 11 9 16 20 22 20 15 13 8
5 8 5 6 8 7 4 8 4 2 3 21 37 51 49 62 67 74 79 81 83 82 75 67 62 58 53 46 44 40 33 27 29 23 21 14 12 9 11 12 12 12 14 18 20 12 9 10 9
2 15 10 5 5 3 3 5 5 7 8 9 23 49 55 62 55 74 84 83 90 88 78 70 67 64 57 54 52 46 43 39 32 28 21 16 16 15 11 13 15 13 18 19 16 12 10 18 14
14 9 12 8 7 6 6 8 9 3 14 27 37 48 63 66 59 65 88 86 83 87 84 79 73 71 61 60 60 55 50 41 34 31 28 23 19 18 16 14 17 16 16 21 22 19 15 17 16
7 11 15 11 7 4 9 10 7 9 13 23 32 53 62 71 71 59 72 87 88 85 87 83 82 76 69 61 61 64 57 49 45 37 33 28 22 21 22 20 18 17 18 17 26 25 22 21 20
11 13 4 5 4 10 7 8 10 13 18 22 30 50 69 78 75 69 68 82 89 94 92 89 87 87 72 68 62 60 64 57 51 43 39 29 30 24 25 23 18 17 20 16 22 28 25 21 20
6 14 10 10 10 6 7 7 2 10 32 34 19 27 48 68 78 69 78 78 86 92 92 96 94 90 83 72 67 58 60 63 58 51 45 39 33 27 20 24 22 16 16 22 17 26 25 23 24
7 9 6 14 7 8 4 5 6 18 32 44 47 8 18 41 67 84 72 82 82 92 93 97 95 96 92 77 70 65 61 60 61 58 49 48 40 34 29 27 25 24 22 20 25 26 29 30 29
14 2 6 7 8 6 6 6 7 25 31 31 37 40 27 16 44 58 73 87 90 93 95 95 92 92 97 87 76 70 64 61 59 60 58 55 49 43 40 39 34 26 28 24 24 27 27 34 33
11 9 11 10 6 10 8 5 10 12 14 22 40 52 50 40 29 55 66 79 97 98 95 97 101 96 100 98 87 77 70 65 62 61 62 57 55 48 42 40 41 36 28 28 25 22 26 27 27
10 7 6 9 6 3 6 5 9 16 28 33 45 54 51 45 38 28 64 74 80 94 98 99 98 98 98 100 97 85 76 68 65 64 63 62 62 55 46 40 39 42 39 34 33 30 27 28 28
Wind_Direction_850mb
143 144 142 128 332 272 340 18 320 314 118 155 147 137 169 137 169 188 147 159 162 159 159 159 162 163 159 143 133 140 147 131 121 126 127 122 126 132 138 147 154 152 139 132 127 121 111 109 109
142 143 141 81 345 329 8 8 313 277 148 137 123 125 114 107 97 142 148 157 163 159 160 163 166 167 166 159 146 146 145 137 134 132 128 126 118 121 127 123 143 145 148 143 136 128 123 120 117
136 136 129 7 125 240 321 25 354 19 131 137 101 103 76 99 147 144 149 156 161 158 160 163 164 167 172 166 154 149 146 140 132 130 131 123 130 119 123 126 132 138 143 149 143 133 129 127 126
149 152 49 89 41 118 20 338 354 129 100 84 107 74 85 171 140 147 150 157 160 158 161 162 163 170 173 167 163 153 152 141 132 134 124 126 125 116 120 127 122 132 136 142 142 137 134 124 124
152 96 94 175 184 241 158 289 355 322 20 109 88 85 98 137 152 151 151 158 160 158 161 161 162 165 164 164 166 162 153 140 132 124 115 117 120 115 122 116 116 138 138 139 136 135 135 130 119
98 159 235 93 39 341 356 356 342 308 120 117 97 105 97 160 158 153 154 157 159 159 161 161 161 165 164 165 158 154 148 138 137 135 128 127 123 119 115 121 122 118 125 133 137 136 131 124 122
237 142 286 124 134 57 343 357 287 8 144 107 132 90 133 153 161 155 155 157 160 162 163 159 161 164 158 157 159 154 148 144 138 134 133 139 129 122 121 126 121 120 125 134 135 132 123 112 115
261 151 298 70 100 217 201 190 220 60 61 139 123 144 158 163 162 156 158 160 161 163 164 164 162 162 162 161 157 154 149 141 140 136 144 145 133 126 118 123 119 122 129 140 138 130 111 109 117
255 359 349 172 147 167 184 180 112 75 107 196 154 153 162 160 161 160 161 164 164 165 168 168 166 167 161 162 159 157 152 141 138 132 141 149 142 134 129 126 120 122 131 146 145 131 115 111 112
142 210 212 263 153 187 140 165 143 101 0 73 97 145 158 160 163 165 166 168 169 168 169 170 169 167 163 161 162 161 152 143 136 124 125 141 142 136 135 128 124 124 129 137 150 133 127 125 109
180 235 214 164 157 150 148 149 153 142 215 192 144 148 161 164 168 171 171 172 171 170 171 171 169 168 167 163 167 156 147 139 133 121 122 136 143 143 139 130 127 130 120 132 144 138 130 123 98
194 230 247 167 163 153 168 137 134 175 119 136 160 161 166 169 171 171 173 176 173 173 171 171 169 171 172 164 161 155 151 148 150 127 123 127 127 133 134 143 138 134 126 134 145 150 157 145 142
211 274 261 245 197 172 148 165 185 208 131 146 159 164 168 169 171 175 177 179 177 175 172 172 169 170 171 162 160 156 161 149 144 145 133 126 117 114 120 137 141 136 144 153 160 167 159 175 165
213 230 264 274 207 162 139 153 168 193 164 148 160 171 173 174 177 178 182 183 184 177 173 171 166 170 171 163 159 152 154 161 161 155 148 148 157 145 139 156 169 166 175 175 185 186 169 98 120
270 292 332 17 125 147 126 71 232 199 173 156 168 176 181 183 186 186 181 182 182 180 175 172 166 168 169 167 168 169 160 161 163 175 177 154 154 157 156 150 172 179 174 180 168 173 184 112 128
44 49 67 277 123 157 157 244 199 185 174 160 167 177 186 192 195 191 189 190 189 180 178 173 172 169 167 165 165 167 176 163 172 179 178 182 173 167 155 164 173 178 182 183 169 169 177 178 143
11 144 117 98 171 133 192 253 153 187 177 166 173 181 187 195 199 203 198 193 190 180 178 176 174 172 170 170 175 184 194 193 194 196 193 187 167 172 163 146 161 170 167 167 176 163 157 154 144
185 115 25 115 195 166 186 258 131 183 197 175 179 184 183 198 206 205 205 199 191 178 177 177 181 183 182 184 189 201 207 213 213 211 223 229 206 179 179 153 141 156 164 169 173 180 169 160 159
134 115 118 254 235 200 232 247 168 170 189 184 191 190 192 199 204 207 207 204 197 189 186 188 189 189 189 188 190 198 203 205 208 205 218 218 221 209 191 176 166 156 172 174 172 174 176 175 172
142 95 182 280 174 185 320 314 124 152 197 198 194 196 196 200 207 214 215 210 206 199 197 195 198 198 197 194 195 203 201 200 198 191 194 188 201 212 193 187 185 198 185 178 176 171 172 179 175
153 161 202 185 341 35 109 354 107 59 89 190 208 206 202 199 209 215 217 215 212 208 204 204 203 206 206 200 200 205 203 206 202 201 206 199 206 221 193 189 200 200 180 178 175 190 188 194 215
212 203 188 184 79 187 75 276 321 195 214 242 206 205 209 205 208 213 214 216 214 214 211 211 210 211 213 210 210 212 210 207 209 210 211 211 215 211 212 219 203 210 198 194 192 190 216 225 236
213 137 173 173 137 65 330 80 265 174 229 230 218 212 211 213 212 209 211 216 219 217 215 216 215 214 216 215 218 218 213 215 217 214 214 213 218 221 221 209 210 216 221 211 206 207 209 210 229
108 85 38 44 90 66 230 127 281 191 233 245 220 217 216 213 218 215 215 218 218 222 219 218 217 216 217 217 224 223 219 216 216 218 214 212 220 228 221 218 212 215 215 218 211 209 214 226 238
96 83 23 32 49 207 345 91 231 296 281 235 222 216 216 217 219 224 217 217 219 222 221 220 219 217 218 219 222 222 225 222 222 221 219 217 222 224 214 215 216 220 222 225 217 215 217 227 229
123 151 152 163 168 208 16 194 176 310 351 21 240 227 210 217 226 230 219 223 220 221 223 223 221 222 219 221 223 226 225 226 225 222 221 221 223 224 223 224 224 224 233 228 227 216 224 236 239
157 67 171 105 13 85 241 297 329 360 14 12 27 40 233 232 234 234 232 222 228 226 223 225 226 224 224 224 224 226 227 227 225 223 225 223 224 224 228 235 237 233 236 233 234 230 236 239 244
92 108 75 15 119 142 310 63 309 348 348 347 358 357 346 283 244 241 230 223 224 231 232 229 231 231 230 226 228 227 228 228 227 225 225 223 222 225 233 242 244 242 236 236 234 237 237 239 242
3 19 37 108 98 148 155 279 17 323 325 338 340 345 345 337 286 239 237 232 226 228 228 232 231 232 232 231 228 229 228 230 227 225 225 224 222 221 230 240 245 244 238 237 240 244 245 248 247
70 73 86 115 218 33 113 223 57 352 350 359 351 349 355 358 346 300 234 230 222 225 227 228 231 234 233 232 231 231 231 230 228 227 226 227 223 223 229 233 237 241 238 240 247 252 258 259 256